GW2783 Weather Reports


Display with metric or nautical units.
time (UTC)temp
F
wind
direction
speed
MPH
gust
MPH
rain 1hr
in
rain 24hr
in
rain mn
in
humidity
%
barometer
mb
20260502221013 47 315 2.0 7.0 0.00 0.05 0.00 50 1017.2
20260502220514 47 281 2.0 7.0 0.00 0.05 0.00 49 1017.2
20260502220031 47 51 1.0 6.0 0.00 0.05 0.00 50 1017.1
20260502215513 48 53 1.0 6.0 0.00 0.05 0.00 51 1017.1
20260502215009 48 322 1.0 9.0 0.00 0.05 0.00 50 1017.1
20260502214529 48 348 2.0 9.0 0.00 0.05 0.00 50 1017.0
20260502214013 48 3 2.0 7.0 0.00 0.05 0.00 49 1016.9
20260502213511 48 276 3.0 10.0 0.00 0.05 0.00 45 1016.9
20260502213038 48 296 2.0 10.0 0.00 0.05 0.00 43 1016.8
20260502212511 48 283 3.0 10.0 0.00 0.05 0.00 43 1016.7
20260502212009 48 356 3.0 10.0 0.00 0.05 0.00 43 1016.7
20260502211531 48 314 4.0 10.0 0.00 0.05 0.00 42 1016.6
20260502211008 48 295 3.0 8.0 0.00 0.05 0.00 45 1016.7
20260502210512 48 254 4.0 8.0 0.00 0.05 0.00 44 1016.7
20260502210028 48 30 1.0 8.0 0.00 0.05 0.00 44 1016.6
20260502205511 48 327 3.0 11.0 0.00 0.05 0.00 45 1016.7
20260502205011 48 288 3.0 11.0 0.00 0.05 0.00 44 1016.6
20260502204527 49 295 4.0 11.0 0.00 0.05 0.00 45 1016.7
20260502204014 49 251 5.0 9.0 0.00 0.05 0.00 44 1016.7
20260502203509 49 75 3.0 11.0 0.00 0.05 0.00 44 1016.7
20260502203030 49 94 3.0 11.0 0.00 0.05 0.00 44 1016.7
20260502202514 49 315 3.0 10.0 0.00 0.05 0.00 46 1016.7
20260502202011 48 271 3.0 8.0 0.00 0.05 0.00 46 1016.7
20260502201536 49 345 3.0 10.0 0.00 0.05 0.00 45 1016.8
20260502201010 49 356 3.0 10.0 0.00 0.05 0.00 45 1016.8
20260502200516 49 352 2.0 8.0 0.00 0.05 0.00 43 1016.7
20260502200031 49 266 4.0 8.0 0.00 0.05 0.00 43 1016.8
20260502195510 49 303 3.0 8.0 0.00 0.05 0.00 43 1016.8
20260502195011 49 322 2.0 10.0 0.00 0.05 0.00 43 1016.8
20260502194529 49 257 4.0 12.0 0.00 0.05 0.00 43 1016.8
20260502194008 49 240 6.0 12.0 0.00 0.05 0.00 43 1017.0
20260502193551 49 285 4.0 10.0 0.00 0.05 0.00 44 1016.9
20260502193030 49 352 2.0 9.0 0.00 0.05 0.00 44 1016.9
20260502192518 49 231 3.0 11.0 0.00 0.05 0.00 45 1017.1
20260502192009 49 283 3.0 11.0 0.00 0.05 0.00 46 1017.1
20260502191534 49 283 4.0 11.0 0.00 0.05 0.00 45 1017.1
20260502191012 50 275 4.0 10.0 0.00 0.05 0.00 44 1017.2
20260502190512 49 281 2.0 10.0 0.00 0.05 0.00 45 1017.2
20260502190029 49 319 4.0 10.0 0.00 0.05 0.00 44 1017.3
20260502185511 49 104 3.0 13.0 0.00 0.05 0.00 46 1017.4
20260502185011 49 244 5.0 13.0 0.00 0.05 0.00 46 1017.4
20260502184536 49 167 3.0 9.0 0.00 0.05 0.00 44 1017.3
20260502184011 49 294 1.0 7.0 0.00 0.05 0.00 44 1017.3
20260502183513 49 0 3.0 9.0 0.00 0.05 0.00 43 1017.2
20260502183030 49 0 2.0 9.0 0.00 0.05 0.00 45 1017.2
20260502182508 49 299 4.0 9.0 0.00 0.05 0.00 46 1017.3
20260502182010 48 278 3.0 7.0 0.00 0.05 0.00 45 1017.3
20260502181527 48 271 2.0 7.0 0.00 0.05 0.00 48 1017.3
20260502181012 47 248 2.0 11.0 0.00 0.05 0.00 49 1017.4
20260502180510 47 323 2.0 11.0 0.00 0.05 0.00 49 1017.5
20260502170516 47 99 3.0 9.0 0.00 0.05 0.00 47 1017.3
20260502164010 48 297 3.0 11.0 0.00 0.06 0.00 51 1017.5
20260502163509 47 322 4.0 11.0 0.00 0.06 0.00 48 1017.5
20260502163028 47 285 5.0 12.0 0.00 0.06 0.00 48 1017.6
20260502162513 47 264 5.0 12.0 0.00 0.06 0.00 45 1017.7
20260502162009 48 323 2.0 9.0 0.00 0.06 0.00 47 1017.7
20260502161532 48 285 2.0 9.0 0.00 0.06 0.00 51 1017.7
20260502161012 46 247 2.0 13.0 0.00 0.06 0.00 50 1017.8
20260502160513 46 296 3.0 13.0 0.00 0.06 0.00 51 1017.8
20260502152014 45 313 4.0 8.0 0.00 0.11 0.00 54 1017.8
20260502151528 45 303 3.0 8.0 0.00 0.11 0.00 55 1017.7
20260502151008 45 308 3.0 9.0 0.00 0.11 0.00 56 1017.7
20260502150511 45 288 4.0 9.0 0.00 0.11 0.00 55 1017.8
20260502130509 40 301 2.0 7.0 0.00 0.16 0.00 74 1017.7
20260502123510 38 0 0.0 1.0 0.00 0.18 0.00 78 1017.6
20260502123028 38 0 0.0 3.0 0.00 0.18 0.00 78 1017.6
20260502122512 38 0 0.0 4.0 0.00 0.18 0.00 79 1017.5
20260502122014 38 291 1.0 4.0 0.00 0.18 0.00 80 1017.5
20260502121533 37 304 1.0 4.0 0.00 0.18 0.00 81 1017.4
20260502121010 37 290 1.0 4.0 0.00 0.18 0.00 81 1017.5
20260502120513 37 301 1.0 5.0 0.00 0.18 0.00 82 1017.4
20260502115515 36 271 3.0 5.0 0.00 0.18 0.00 83 1017.2
20260502115011 36 289 2.0 4.0 0.00 0.18 0.00 85 1017.2
20260502114531 36 336 0.0 4.0 0.00 0.18 0.00 87 1017.2
20260502114012 36 278 1.0 4.0 0.00 0.18 0.00 88 1017.2
20260502113511 36 281 1.0 3.0 0.00 0.18 0.00 88 1017.2
20260502113030 35 308 1.0 3.0 0.00 0.18 0.00 89 1017.1
20260502112511 35 291 0.0 2.0 0.00 0.18 0.00 89 1017.2
20260502112010 35 245 0.0 2.0 0.00 0.18 0.00 90 1017.3
20260502111527 35 278 0.0 2.0 0.00 0.18 0.00 90 1017.2
20260502111009 34 0 0.0 1.0 0.00 0.18 0.00 91 1017.2
20260502110511 34 0 0.0 1.0 0.00 0.18 0.00 91 1017.2
20260502110032 34 0 0.0 1.0 0.00 0.18 0.00 91 1017.1
20260502105512 34 0 0.0 2.0 0.00 0.18 0.00 92 1017.2
20260502105011 33 276 0.0 3.0 0.00 0.18 0.00 92 1017.2
20260502104533 33 0 0.0 3.0 0.00 0.18 0.00 93 1017.0
20260502104009 33 314 0.0 3.0 0.00 0.18 0.00 93 1017.0
20260502103510 33 276 0.0 2.0 0.00 0.18 0.00 93 1017.0
20260502103027 33 285 0.0 2.0 0.00 0.18 0.00 93 1017.2
20260502102515 33 297 0.0 2.0 0.00 0.18 0.00 94 1017.1
20260502102012 33 273 0.0 2.0 0.00 0.18 0.00 94 1017.1
20260502101533 33 0 0.0 1.0 0.00 0.18 0.00 94 1017.1
20260502101011 33 0 0.0 1.0 0.00 0.18 0.00 93 1017.0
20260502100509 33 0 0.0 1.0 0.00 0.18 0.00 94 1017.0
20260502091010 34 0 0.0 1.0 0.00 0.18 0.00 93 1016.9
20260502090512 34 0 0.0 1.0 0.00 0.18 0.00 93 1016.8
20260502071531 36 0 0.0 0.0 0.00 0.18 0.00 93 1016.6
20260502071013 36 0 0.0 0.0 0.00 0.18 0.00 93 1016.6
20260502070515 36 0 0.0 0.0 0.00 0.18 0.00 93 1016.6
20260502070047 36 0 0.0 0.0 0.00 0.18 0.00 93 1016.7
20260502065514 36 0 0.0 0.0 0.00 0.18 0.00 93 1016.8
20260502065013 36 0 0.0 0.0 0.00 0.18 0.00 93 1016.9
20260502064527 36 0 0.0 0.0 0.00 0.18 0.00 93 1016.8
20260502064009 36 0 0.0 0.0 0.00 0.18 0.00 93 1017.0
20260502063518 36 0 0.0 0.0 0.00 0.18 0.00 93 1017.0
20260502063033 36 0 0.0 0.0 0.00 0.18 0.00 93 1017.0
20260502062511 37 0 0.0 0.0 0.00 0.18 0.00 93 1016.9
20260502062013 37 0 0.0 0.0 0.00 0.18 0.00 93 1017.0
20260502061531 37 0 0.0 0.0 0.00 0.18 0.00 93 1016.9
20260502061011 37 0 0.0 0.0 0.00 0.18 0.00 93 1017.0
20260502060509 37 0 0.0 0.0 0.00 0.18 0.00 93 1017.1
20260502060037 37 0 0.0 0.0 0.00 0.18 0.00 93 1017.1
20260502055512 37 0 0.0 0.0 0.00 0.18 0.00 92 1017.1
20260502055017 37 0 0.0 0.0 0.00 0.18 0.00 93 1017.1
20260502054539 37 0 0.0 0.0 0.00 0.18 0.00 93 1017.2
20260502054012 37 0 0.0 0.0 0.00 0.18 0.00 93 1017.3
20260502053512 37 0 0.0 0.0 0.00 0.18 0.00 93 1017.3
20260502053027 37 0 0.0 0.0 0.00 0.18 0.00 93 1017.2
20260502052518 37 0 0.0 0.0 0.00 0.18 0.00 92 1017.3
20260502052013 37 0 0.0 0.0 0.00 0.18 0.00 92 1017.2
20260502051531 38 0 0.0 0.0 0.00 0.18 0.00 92 1017.2
20260502051017 38 0 0.0 0.0 0.00 0.18 0.00 92 1017.1
20260502050509 38 0 0.0 0.0 0.00 0.18 0.00 92 1017.2
20260502050030 38 0 0.0 0.0 0.00 0.18 0.00 92 1017.2
20260502045510 38 0 0.0 0.0 0.00 0.18 0.00 92 1017.3
20260502045014 38 0 0.0 0.0 0.00 0.18 0.00 92 1017.2
20260502044528 38 0 0.0 0.0 0.00 0.18 0.00 92 1017.2
20260502044009 38 0 0.0 1.0 0.00 0.18 0.00 92 1017.1
20260502043513 38 0 0.0 1.0 0.00 0.18 0.00 92 1017.2
20260502043028 38 0 0.0 1.0 0.00 0.18 0.00 92 1017.0
20260502042510 38 0 0.0 1.0 0.00 0.18 0.00 92 1017.2
20260502042009 38 0 0.0 0.0 0.00 0.18 0.00 92 1017.2
20260502041552 38 0 0.0 0.0 0.00 0.18 0.00 92 1017.2
20260502041011 38 0 0.0 0.0 0.00 0.18 0.00 92 1017.2
20260502040513 38 0 0.0 0.0 0.00 0.18 0.00 91 1017.1
20260502040045 38 0 0.0 0.0 0.00 0.18 0.00 91 1017.1
20260502035510 38 0 0.0 0.0 0.00 0.18 0.18 91 1017.1
20260502035012 39 0 0.0 0.0 0.00 0.18 0.18 91 1017.0
20260502034528 39 0 0.0 1.0 0.00 0.18 0.18 91 1017.0
20260502034014 39 0 0.0 1.0 0.00 0.18 0.18 91 1017.0
20260502033514 39 0 0.0 0.0 0.00 0.18 0.18 91 1017.0
20260502033032 39 0 0.0 0.0 0.00 0.18 0.18 91 1017.1
20260502032511 39 0 0.0 0.0 0.00 0.18 0.18 91 1017.1
20260502032013 39 0 0.0 0.0 0.00 0.18 0.18 90 1017.2
20260502031530 39 0 0.0 0.0 0.00 0.18 0.18 90 1017.2
20260502031013 39 0 0.0 0.0 0.00 0.18 0.18 90 1017.3
20260502030511 40 0 0.0 0.0 0.00 0.18 0.18 90 1017.3
20260502030040 40 0 0.0 0.0 0.00 0.18 0.18 90 1017.4
20260502025512 40 0 0.0 0.0 0.00 0.18 0.18 90 1017.4
20260502025018 40 0 0.0 0.0 0.00 0.18 0.18 89 1017.2
20260502024530 40 0 0.0 0.0 0.00 0.18 0.18 89 1017.2
20260502024012 40 0 0.0 0.0 0.00 0.18 0.18 89 1017.2
20260502023516 40 0 0.0 1.0 0.00 0.18 0.18 89 1017.2
20260502023045 41 0 0.0 1.0 0.01 0.18 0.18 88 1017.1
20260502022511 41 0 0.0 1.0 0.05 0.18 0.18 88 1017.1
20260502022013 41 115 0.0 1.0 0.05 0.18 0.18 88 1017.0
20260502021530 41 0 0.0 1.0 0.05 0.18 0.18 87 1016.9
20260502021013 41 0 0.0 1.0 0.05 0.18 0.18 87 1016.8
20260502020513 41 0 0.0 2.0 0.05 0.18 0.18 86 1016.7
20260502020030 42 0 0.0 2.0 0.05 0.18 0.18 86 1016.6
20260502015513 42 113 0.0 2.0 0.05 0.18 0.18 85 1016.5
20260502015013 42 0 0.0 1.0 0.05 0.18 0.18 85 1016.4
20260502014535 42 0 0.0 2.0 0.05 0.18 0.18 84 1016.4
20260502014011 43 0 0.0 3.0 0.05 0.18 0.18 83 1016.4
20260502013513 43 117 1.0 8.0 0.05 0.18 0.18 81 1016.5
20260502013030 44 91 2.0 8.0 0.04 0.17 0.17 78 1016.5
20260502012512 45 320 4.0 8.0 0.00 0.13 0.13 76 1016.7
20260502012014 45 101 2.0 7.0 0.00 0.13 0.13 74 1016.2
20260502011533 46 314 0.0 7.0 0.00 0.13 0.13 74 1015.9
20260502011010 46 105 1.0 8.0 0.00 0.13 0.13 74 1015.7
20260502010512 46 0 2.0 8.0 0.00 0.13 0.13 74 1015.5
20260502010028 46 0 0.0 0.0 0.00 0.13 0.13 75 1015.4
20260502005513 46 0 0.0 0.0 0.00 0.13 0.13 75 1015.3
20260502005013 46 0 0.0 0.0 0.00 0.13 0.13 74 1015.3
20260502004528 46 0 0.0 0.0 0.00 0.13 0.13 74 1015.3
20260502004010 47 0 0.0 0.0 0.00 0.13 0.13 73 1015.3
20260502003510 47 0 0.0 0.0 0.00 0.13 0.13 72 1015.3
20260502003031 47 0 0.0 0.0 0.00 0.13 0.13 72 1015.3
20260502002512 47 0 0.0 0.0 0.00 0.13 0.13 72 1015.4
20260502002014 47 0 0.0 0.0 0.00 0.13 0.13 71 1015.4
20260502001538 47 0 0.0 0.0 0.00 0.13 0.13 70 1015.4
20260502001013 47 0 0.0 0.0 0.00 0.13 0.13 70 1015.4
20260502000514 48 0 0.0 2.0 0.00 0.13 0.13 70 1015.3
20260502000048 48 0 0.0 2.0 0.00 0.13 0.13 69 1015.2
20260501235512 48 0 0.0 3.0 0.00 0.13 0.13 68 1015.1
20260501235010 48 229 1.0 4.0 0.00 0.13 0.13 68 1014.9
20260501234531 48 0 0.0 4.0 0.00 0.13 0.13 68 1014.9
20260501234012 48 330 1.0 5.0 0.00 0.13 0.13 68 1014.8
20260501233513 48 316 2.0 5.0 0.00 0.13 0.13 68 1014.7
20260501233031 48 277 1.0 5.0 0.00 0.13 0.13 67 1014.8
20260501232514 48 252 0.0 5.0 0.00 0.13 0.13 67 1014.7
20260501232009 48 293 2.0 5.0 0.00 0.13 0.13 66 1014.6
20260501231529 48 311 2.0 6.0 0.00 0.13 0.13 66 1014.6
20260501231012 48 343 3.0 6.0 0.00 0.13 0.13 66 1014.6
20260501230516 48 338 2.0 6.0 0.00 0.13 0.13 67 1014.6
20260501230104 48 335 0.0 6.0 0.00 0.13 0.13 68 1014.6
20260501225512 48 290 2.0 6.0 0.00 0.13 0.13 67 1014.6
20260501225015 49 120 1.0 8.0 0.00 0.13 0.13 67 1014.6
20260501224530 49 356 3.0 8.0 0.00 0.13 0.13 66 1014.6
20260501224012 49 262 1.0 8.0 0.00 0.13 0.13 67 1014.7
20260501223512 49 291 2.0 4.0 0.00 0.13 0.13 65 1014.6
20260501223031 50 355 1.0 7.0 0.00 0.13 0.13 66 1014.7
20260501222512 50 132 2.0 7.0 0.00 0.13 0.13 65 1014.6
20260501222012 50 295 1.0 6.0 0.00 0.13 0.13 68 1014.6
20260501221528 50 347 1.0 6.0 0.00 0.13 0.13 68 1014.7